owner,sensor,date,latitude,longitude,vertical_datum,direction_of_sea_water_velocity,sea_water_speed,upward_sea_water_velocity,qcFlag 
TABS,ioos:station:wmo:42049:1,2011-04-01T00:00:00Z,28.3507,-96.0058,2.0,239.0024864,50.000421,-99999.0,'11111222,11111222,99999999' 
TABS,ioos:station:wmo:42049:1,2011-04-01T00:30:00Z,28.3507,-96.0058,2.0,234.0046947,51.99806246,-99999.0,'11111222,11111222,99999999' 
TABS,ioos:station:wmo:42049:1,2011-04-01T01:00:00Z,28.3507,-96.0058,2.0,230.9980742,50.00460479,-99999.0,'11111222,11111222,99999999' 
TABS,ioos:station:wmo:42049:1,2011-04-01T01:30:00Z,28.3507,-96.0058,2.0,224.9996843,47.99840831,-99999.0,'11111222,11111222,99999999' 
TABS,ioos:station:wmo:42049:1,2011-04-01T02:00:00Z,28.3507,-96.0058,2.0,227.9992148,44.99828552,-99999.0,'11111222,11111222,99999999' 
TABS,ioos:station:wmo:42049:1,2011-04-01T02:30:00Z,28.3507,-96.0058,2.0,227.9992148,44.99828552,-99999.0,'11111222,11111222,99999999' 
TABS,ioos:station:wmo:42049:1,2011-04-01T03:00:00Z,28.3507,-96.0058,2.0,227.998626,40.006322,-99999.0,'11111222,11111222,99999999' 
TABS,ioos:station:wmo:42049:1,2011-04-01T03:30:00Z,28.3507,-96.0058,2.0,256.9962081,43.99826019,-99999.0,'11111222,11111222,99999999' 
TABS,ioos:station:wmo:42049:1,2011-04-01T04:00:00Z,28.3507,-96.0058,2.0,227.9992148,44.99828552,-99999.0,'11111222,11111222,99999999' 
TABS,ioos:station:wmo:42049:1,2011-04-01T04:30:00Z,28.3507,-96.0058,2.0,228.0006858,47.00220633,-99999.0,'11111222,11111222,99999999' 
TABS,ioos:station:wmo:42049:1,2011-04-01T05:00:00Z,28.3507,-96.0058,2.0,228.0006858,47.00220633,-99999.0,'11111222,11111222,99999999' 
TABS,ioos:station:wmo:42049:1,2011-04-01T05:30:00Z,28.3507,-96.0058,2.0,227.9973818,48.00045104,-99999.0,'11111222,11111222,99999999' 
TABS,ioos:station:wmo:42049:1,2011-04-01T06:00:00Z,28.3507,-96.0058,2.0,230.0008024,51.9935121,-99999.0,'11111222,11111222,99999999' 
TABS,ioos:station:wmo:42049:1,2011-04-01T06:30:00Z,28.3507,-96.0058,2.0,230.0030501,47.99745202,-99999.0,'11111222,11111222,99999999' 
TABS,ioos:station:wmo:42049:1,2011-04-01T07:00:00Z,28.3507,-96.0058,2.0,235.9824039,16.99906468,-99999.0,'11111222,11111222,99999999' 
TABS,ioos:station:wmo:42049:1,2011-04-01T07:30:00Z,28.3507,-96.0058,2.0,241.9994698,54.99769086,-99999.0,'11111222,11111222,99999999' 
TABS,ioos:station:wmo:42049:1,2011-04-01T08:00:00Z,28.3507,-96.0058,2.0,246.0026703,53.99713418,-99999.0,'11111222,11111222,99999999' 
TABS,ioos:station:wmo:42049:1,2011-04-01T08:30:00Z,28.3507,-96.0058,2.0,248.0022271,56.99951754,-99999.0,'11111222,11111222,99999999' 
TABS,ioos:station:wmo:42049:1,2011-04-01T09:00:00Z,28.3507,-96.0058,2.0,247.9987086,47.99510808,-99999.0,'11111222,11111222,99999999' 
TABS,ioos:station:wmo:42049:1,2011-04-01T09:30:00Z,28.3507,-96.0058,2.0,250.9947338,54.99789178,-99999.0,'11111222,11111222,99999999' 
TABS,ioos:station:wmo:42049:1,2011-04-01T10:00:00Z,28.3507,-96.0058,2.0,247.9941137,48.9997398,-99999.0,'11111222,11111222,99999999' 
TABS,ioos:station:wmo:42049:1,2011-04-01T10:30:00Z,28.3507,-96.0058,2.0,250.9935085,45.99761407,-99999.0,'11111222,11111222,99999999' 
TABS,ioos:station:wmo:42049:1,2011-04-01T11:00:00Z,28.3507,-96.0058,2.0,251.9986272,43.00504738,-99999.0,'11111222,11111222,99999999' 
TABS,ioos:station:wmo:42049:1,2011-04-01T11:30:00Z,28.3507,-96.0058,2.0,250.9922713,43.99896476,-99999.0,'11111222,11111222,99999999' 
TABS,ioos:station:wmo:42049:1,2011-04-01T12:00:00Z,28.3507,-96.0058,2.0,247.9990698,38.99997051,-99999.0,'11111222,11111222,99999999' 
TABS,ioos:station:wmo:42049:1,2011-04-01T12:30:00Z,28.3507,-96.0058,2.0,245.9912153,37.99731175,-99999.0,'11111222,11111222,99999999' 
TABS,ioos:station:wmo:42049:1,2011-04-01T13:00:00Z,28.3507,-96.0058,2.0,240.0021044,36.00267212,-99999.0,'11111222,11111222,99999999' 
TABS,ioos:station:wmo:42049:1,2011-04-01T13:30:00Z,28.3507,-96.0058,2.0,239.9989215,34.99922999,-99999.0,'11111222,11111222,99999999' 
TABS,ioos:station:wmo:42049:1,2011-04-01T14:00:00Z,28.3507,-96.0058,2.0,239.9955506,33.99578797,-99999.0,'11111222,11111222,99999999' 
TABS,ioos:station:wmo:42049:1,2011-04-01T14:30:00Z,28.3507,-96.0058,2.0,238.9971917,33.00491024,-99999.0,'11111222,11111222,99999999' 
TABS,ioos:station:wmo:42049:1,2011-04-01T15:00:00Z,28.3507,-96.0058,2.0,233.0008688,32.00408099,-99999.0,'11111222,11111222,99999999' 
TABS,ioos:station:wmo:42049:1,2011-04-01T15:30:00Z,28.3507,-96.0058,2.0,233.0008688,32.00408099,-99999.0,'11111222,11111222,99999999' 
TABS,ioos:station:wmo:42049:1,2011-04-01T16:00:00Z,28.3507,-96.0058,2.0,70.99895021,32.00381227,-99999.0,'11111222,11111222,99999999' 
TABS,ioos:station:wmo:42049:1,2011-04-01T16:30:00Z,28.3507,-96.0058,2.0,227.0007968,31.99488084,-99999.0,'11111222,11111222,99999999' 
TABS,ioos:station:wmo:42049:1,2011-04-01T17:00:00Z,28.3507,-96.0058,2.0,224.9996843,32.00365292,-99999.0,'11111222,11111222,99999999' 
TABS,ioos:station:wmo:42049:1,2011-04-01T17:30:00Z,28.3507,-96.0058,2.0,220.9987542,29.99786659,-99999.0,'11111222,11111222,99999999' 
TABS,ioos:station:wmo:42049:1,2011-04-01T18:00:00Z,28.3507,-96.0058,2.0,227.999686,29.99414943,-99999.0,'11111222,11111222,99999999' 
TABS,ioos:station:wmo:42049:1,2011-04-01T18:30:00Z,28.3507,-96.0058,2.0,224.9996843,32.00365292,-99999.0,'11111222,11111222,99999999' 
TABS,ioos:station:wmo:42049:1,2011-04-01T19:00:00Z,28.3507,-96.0058,2.0,226.9889992,32.99934848,-99999.0,'11111222,11111222,99999999' 
TABS,ioos:station:wmo:42049:1,2011-04-01T19:30:00Z,28.3507,-96.0058,2.0,256.9964035,29.99925666,-99999.0,'11111222,11111222,99999999' 
TABS,ioos:station:wmo:42049:1,2011-04-01T20:00:00Z,28.3507,-96.0058,2.0,227.9990802,35.00023571,-99999.0,'11111222,11111222,99999999' 
TABS,ioos:station:wmo:42049:1,2011-04-01T20:30:00Z,28.3507,-96.0058,2.0,224.9996843,33.99769404,-99999.0,'11111222,11111222,99999999' 
TABS,ioos:station:wmo:42049:1,2011-04-01T21:00:00Z,28.3507,-96.0058,2.0,224.9996843,33.99769404,-99999.0,'11111222,11111222,99999999' 
TABS,ioos:station:wmo:42049:1,2011-04-01T21:30:00Z,28.3507,-96.0058,2.0,230.0025593,36.00161108,-99999.0,'11111222,11111222,99999999' 
TABS,ioos:station:wmo:42049:1,2011-04-01T22:00:00Z,28.3507,-96.0058,2.0,234.000725,39.99862123,-99999.0,'11111222,11111222,99999999' 
TABS,ioos:station:wmo:42049:1,2011-04-01T22:30:00Z,28.3507,-96.0058,2.0,233.9922435,38.00030526,-99999.0,'11111222,11111222,99999999' 
TABS,ioos:station:wmo:42049:1,2011-04-01T23:00:00Z,28.3507,-96.0058,2.0,234.0025359,38.9965242,-99999.0,'11111222,11111222,99999999' 
TABS,ioos:station:wmo:42049:1,2011-04-01T23:30:00Z,28.3507,-96.0058,2.0,237.0011078,36.99842429,-99999.0,'11111222,11111222,99999999' 
TABS,ioos:station:wmo:42049:1,2011-04-02T00:00:00Z,28.3507,-96.0058,2.0,237.0033209,41.00367057,-99999.0,'11111222,11111222,99999999' 
TABS,ioos:station:wmo:42049:1,2011-04-02T00:30:00Z,28.3507,-96.0058,2.0,239.9959828,38.99567797,-99999.0,'11111222,11111222,99999999' 
TABS,ioos:station:wmo:42049:1,2011-04-02T01:00:00Z,28.3507,-96.0058,2.0,239.0039617,40.0020512,-99999.0,'11111222,11111222,99999999' 
TABS,ioos:station:wmo:42049:1,2011-04-02T01:30:00Z,28.3507,-96.0058,2.0,241.9981154,37.99826443,-99999.0,'11111222,11111222,99999999' 
TABS,ioos:station:wmo:42049:1,2011-04-02T02:00:00Z,28.3507,-96.0058,2.0,242.9953178,41.99906308,-99999.0,'11111222,11111222,99999999' 
TABS,ioos:station:wmo:42049:1,2011-04-02T02:30:00Z,28.3507,-96.0058,2.0,242.9953178,41.99906308,-99999.0,'11111222,11111222,99999999' 
TABS,ioos:station:wmo:42049:1,2011-04-02T03:00:00Z,28.3507,-96.0058,2.0,245.9912153,37.99731175,-99999.0,'11111222,11111222,99999999' 
TABS,ioos:station:wmo:42049:1,2011-04-02T03:30:00Z,28.3507,-96.0058,2.0,249.0052578,41.0018841,-99999.0,'11111222,11111222,99999999' 
TABS,ioos:station:wmo:42049:1,2011-04-02T04:00:00Z,28.3507,-96.0058,2.0,251.9977855,40.99693891,-99999.0,'11111222,11111222,99999999' 
TABS,ioos:station:wmo:42049:1,2011-04-02T04:30:00Z,28.3507,-96.0058,2.0,257.9982174,39.00249479,-99999.0,'11111222,11111222,99999999' 
TABS,ioos:station:wmo:42049:1,2011-04-02T05:00:00Z,28.3507,-96.0058,2.0,253.9997358,39.00080256,-99999.0,'11111222,11111222,99999999' 
TABS,ioos:station:wmo:42049:1,2011-04-02T05:30:00Z,28.3507,-96.0058,2.0,256.9978358,36.00300543,-99999.0,'11111222,11111222,99999999' 
TABS,ioos:station:wmo:42049:1,2011-04-02T06:00:00Z,28.3507,-96.0058,2.0,350.9927136,35.0016471,-99999.0,'11111222,11111222,99999999' 
TABS,ioos:station:wmo:42049:1,2011-04-02T06:30:00Z,28.3507,-96.0058,2.0,260.0008431,35.99673596,-99999.0,'11111222,11111222,99999999' 
TABS,ioos:station:wmo:42049:1,2011-04-02T07:00:00Z,28.3507,-96.0058,2.0,263.998766,33.00083181,-99999.0,'11111222,11111222,99999999' 
TABS,ioos:station:wmo:42049:1,2011-04-02T07:30:00Z,28.3507,-96.0058,2.0,266.0035292,30.99535449,-99999.0,'11111222,11111222,99999999' 
TABS,ioos:station:wmo:42049:1,2011-04-02T08:00:00Z,28.3507,-96.0058,2.0,263.0040293,27.9984321,-99999.0,'11111222,11111222,99999999' 
TABS,ioos:station:wmo:42049:1,2011-04-02T08:30:00Z,28.3507,-96.0058,2.0,268.9970076,24.00367472,-99999.0,'11111222,11111222,99999999' 
TABS,ioos:station:wmo:42049:1,2011-04-02T09:00:00Z,28.3507,-96.0058,2.0,261.0083528,23.9948432,-99999.0,'11111222,11111222,99999999' 
TABS,ioos:station:wmo:42049:1,2011-04-02T09:30:00Z,28.3507,-96.0058,2.0,57.00350683,21.99824766,-99999.0,'11111222,11111222,99999999' 
TABS,ioos:station:wmo:42049:1,2011-04-02T10:00:00Z,28.3507,-96.0058,2.0,246.0131888,16.99791164,-99999.0,'11111222,11111222,99999999' 
TABS,ioos:station:wmo:42049:1,2011-04-02T10:30:00Z,28.3507,-96.0058,2.0,257.9848772,11.00098632,-99999.0,'11111222,11111222,99999999' 
TABS,ioos:station:wmo:42049:1,2011-04-02T11:00:00Z,28.3507,-96.0058,2.0,239.9941459,11.998004,-99999.0,'11111222,11111222,99999999' 
TABS,ioos:station:wmo:42049:1,2011-04-02T11:30:00Z,28.3507,-96.0058,2.0,223.9866043,15.99725601,-99999.0,'11111222,11111222,99999999' 
TABS,ioos:station:wmo:42049:1,2011-04-02T12:00:00Z,28.3507,-96.0058,2.0,214.9969451,17.99360998,-99999.0,'11111222,11111222,99999999' 
TABS,ioos:station:wmo:42049:1,2011-04-02T12:30:00Z,28.3507,-96.0058,2.0,201.0084555,19.99944499,-99999.0,'11111222,11111222,99999999' 
TABS,ioos:station:wmo:42049:1,2011-04-02T13:00:00Z,28.3507,-96.0058,2.0,203.9923838,27.003135,-99999.0,'11111222,11111222,99999999' 
TABS,ioos:station:wmo:42049:1,2011-04-02T13:30:00Z,28.3507,-96.0058,2.0,203.0021546,27.99600864,-99999.0,'11111222,11111222,99999999' 
TABS,ioos:station:wmo:42049:1,2011-04-02T14:00:00Z,28.3507,-96.0058,2.0,210.0004472,29.99933999,-99999.0,'11111222,11111222,99999999' 
TABS,ioos:station:wmo:42049:1,2011-04-02T14:30:00Z,28.3507,-96.0058,2.0,203.9939525,33.00180147,-99999.0,'11111222,11111222,99999999' 
TABS,ioos:station:wmo:42049:1,2011-04-02T15:00:00Z,28.3507,-96.0058,2.0,205.991992,33.99887645,-99999.0,'11111222,11111222,99999999' 
TABS,ioos:station:wmo:42049:1,2011-04-02T15:30:00Z,28.3507,-96.0058,2.0,207.0010314,37.00352551,-99999.0,'11111222,11111222,99999999' 
TABS,ioos:station:wmo:42049:1,2011-04-02T16:00:00Z,28.3507,-96.0058,2.0,207.0049498,39.00264863,-99999.0,'11111222,11111222,99999999' 
TABS,ioos:station:wmo:42049:1,2011-04-02T16:30:00Z,28.3507,-96.0058,2.0,206.9960347,40.99723161,-99999.0,'11111222,11111222,99999999' 
TABS,ioos:station:wmo:42049:1,2011-04-02T17:00:00Z,28.3507,-96.0058,2.0,199.9947882,41.00147924,-99999.0,'11111222,11111222,99999999' 
TABS,ioos:station:wmo:42049:1,2011-04-02T17:30:00Z,28.3507,-96.0058,2.0,209.9976524,41.00256212,-99999.0,'11111222,11111222,99999999' 
TABS,ioos:station:wmo:42049:1,2011-04-02T18:00:00Z,28.3507,-96.0058,2.0,212.9960477,41.00367057,-99999.0,'11111222,11111222,99999999' 
TABS,ioos:station:wmo:42049:1,2011-04-02T18:30:00Z,28.3507,-96.0058,2.0,218.9999121,46.00179344,-99999.0,'11111222,11111222,99999999' 
TABS,ioos:station:wmo:42049:1,2011-04-02T19:00:00Z,28.3507,-96.0058,2.0,224.000286,45.00005,-99999.0,'11111222,11111222,99999999' 
TABS,ioos:station:wmo:42049:1,2011-04-02T19:30:00Z,28.3507,-96.0058,2.0,228.0006858,47.00220633,-99999.0,'11111222,11111222,99999999' 
TABS,ioos:station:wmo:42049:1,2011-04-02T20:00:00Z,28.3507,-96.0058,2.0,233.9998012,48.99764892,-99999.0,'11111222,11111222,99999999' 
TABS,ioos:station:wmo:42049:1,2011-04-02T20:30:00Z,28.3507,-96.0058,2.0,238.9957888,49.00058775,-99999.0,'11111222,11111222,99999999' 
TABS,ioos:station:wmo:42049:1,2011-04-02T21:00:00Z,28.3507,-96.0058,2.0,242.0046745,50.000634,-99999.0,'11111222,11111222,99999999' 
TABS,ioos:station:wmo:42049:1,2011-04-02T21:30:00Z,28.3507,-96.0058,2.0,247.9941137,48.9997398,-99999.0,'11111222,11111222,99999999' 
TABS,ioos:station:wmo:42049:1,2011-04-02T22:00:00Z,28.3507,-96.0058,2.0,248.9951881,50.99873038,-99999.0,'11111222,11111222,99999999' 
TABS,ioos:station:wmo:42049:1,2011-04-02T22:30:00Z,28.3507,-96.0058,2.0,254.0006996,49.99651988,-99999.0,'11111222,11111222,99999999' 
TABS,ioos:station:wmo:42049:1,2011-04-02T23:00:00Z,28.3507,-96.0058,2.0,224.000286,45.00005,-99999.0,'11111222,11111222,99999999' 
TABS,ioos:station:wmo:42049:1,2011-04-03T03:30:00Z,28.3507,-96.0058,2.0,283.4389268,56.49689726,-99999.0,'11111222,11111222,99999999' 
TABS,ioos:station:wmo:42049:1,2011-04-03T04:00:00Z,28.3507,-96.0058,2.0,287.4621791,57.71989258,-99999.0,'11111222,11111222,99999999' 
TABS,ioos:station:wmo:42049:1,2011-04-03T04:30:00Z,28.3507,-96.0058,2.0,290.6164276,54.75656034,-99999.0,'11111222,11111222,99999999' 
TABS,ioos:station:wmo:42049:1,2011-04-03T05:00:00Z,28.3507,-96.0058,2.0,297.125612,53.51613682,-99999.0,'11111222,11111222,99999999' 
TABS,ioos:station:wmo:42049:1,2011-04-03T05:30:00Z,28.3507,-96.0058,2.0,293.5640056,50.90459802,-99999.0,'11111222,11111222,99999999' 
TABS,ioos:station:wmo:42049:1,2011-04-03T06:00:00Z,28.3507,-96.0058,2.0,294.1507591,44.58205917,-99999.0,'11111222,11111222,99999999' 
TABS,ioos:station:wmo:42049:1,2011-04-03T06:30:00Z,28.3507,-96.0058,2.0,295.5499846,39.11497156,-99999.0,'11111222,11111222,99999999' 
TABS,ioos:station:wmo:42049:1,2011-04-03T07:00:00Z,28.3507,-96.0058,2.0,295.6750532,37.41393457,-99999.0,'11111222,11111222,99999999' 
TABS,ioos:station:wmo:42049:1,2011-04-03T07:30:00Z,28.3507,-96.0058,2.0,290.6621839,27.26361128,-99999.0,'11111222,11111222,99999999' 
TABS,ioos:station:wmo:42049:1,2011-04-03T08:00:00Z,28.3507,-96.0058,2.0,283.8150312,23.82930339,-99999.0,'11111222,11111222,99999999' 
TABS,ioos:station:wmo:42049:1,2011-04-03T08:30:00Z,28.3507,-96.0058,2.0,274.5905827,22.49214085,-99999.0,'11111222,11111222,99999999' 
TABS,ioos:station:wmo:42049:1,2011-04-03T09:00:00Z,28.3507,-96.0058,2.0,278.0545525,20.2699408,-99999.0,'11111222,11111222,99999999' 
TABS,ioos:station:wmo:42049:1,2011-04-03T09:30:00Z,28.3507,-96.0058,2.0,294.1117585,19.53431084,-99999.0,'11111222,11111222,99999999' 
TABS,ioos:station:wmo:42049:1,2011-04-03T10:00:00Z,28.3507,-96.0058,2.0,294.5547594,16.3154528,-99999.0,'11111222,11111222,99999999' 
TABS,ioos:station:wmo:42049:1,2011-04-03T10:30:00Z,28.3507,-96.0058,2.0,285.3779827,10.25721697,-99999.0,'11111222,11111222,99999999' 
TABS,ioos:station:wmo:42049:1,2011-04-03T11:00:00Z,28.3507,-96.0058,2.0,245.4581803,12.15837571,-99999.0,'11111222,11111222,99999999' 
TABS,ioos:station:wmo:42049:1,2011-04-03T11:30:00Z,28.3507,-96.0058,2.0,224.9548169,18.05951273,-99999.0,'11111222,11111222,99999999' 
TABS,ioos:station:wmo:42049:1,2011-04-03T12:00:00Z,28.3507,-96.0058,2.0,219.2355534,19.57268505,-99999.0,'11111222,11111222,99999999' 
TABS,ioos:station:wmo:42049:1,2011-04-03T12:30:00Z,28.3507,-96.0058,2.0,210.9823197,26.06950134,-99999.0,'11111222,11111222,99999999' 
TABS,ioos:station:wmo:42049:1,2011-04-03T13:00:00Z,28.3507,-96.0058,2.0,196.4485473,27.82895075,-99999.0,'11111222,11111222,99999999' 
TABS,ioos:station:wmo:42049:1,2011-04-03T13:30:00Z,28.3507,-96.0058,2.0,198.776437,32.34118891,-99999.0,'11111222,11111222,99999999' 
TABS,ioos:station:wmo:42049:1,2011-04-03T14:00:00Z,28.3507,-96.0058,2.0,197.819861,31.82699483,-99999.0,'11111222,11111222,99999999' 
TABS,ioos:station:wmo:42049:1,2011-04-03T14:30:00Z,28.3507,-96.0058,2.0,199.5469245,31.4421262,-99999.0,'11111222,11111222,99999999' 
TABS,ioos:station:wmo:42049:1,2011-04-03T15:00:00Z,28.3507,-96.0058,2.0,198.1921755,29.88379159,-99999.0,'11111222,11111222,99999999' 
TABS,ioos:station:wmo:42049:1,2011-04-03T15:30:00Z,28.3507,-96.0058,2.0,206.7577811,29.20768563,-99999.0,'11111222,11111222,99999999' 
TABS,ioos:station:wmo:42049:1,2011-04-03T16:00:00Z,28.3507,-96.0058,2.0,216.8261979,31.68200909,-99999.0,'11111222,11111222,99999999' 
TABS,ioos:station:wmo:42049:1,2011-04-03T16:30:00Z,28.3507,-96.0058,2.0,218.9505127,35.36131926,-99999.0,'11111222,11111222,99999999' 
TABS,ioos:station:wmo:42049:1,2011-04-03T17:00:00Z,28.3507,-96.0058,2.0,221.5754305,35.39732335,-99999.0,'11111222,11111222,99999999' 
TABS,ioos:station:wmo:42049:1,2011-04-03T17:30:00Z,28.3507,-96.0058,2.0,229.8264266,34.11868989,-99999.0,'11111222,11111222,99999999' 
TABS,ioos:station:wmo:42049:1,2011-04-03T18:00:00Z,28.3507,-96.0058,2.0,233.4751732,35.16663902,-99999.0,'11111222,11111222,99999999' 
TABS,ioos:station:wmo:42049:1,2011-04-03T18:30:00Z,28.3507,-96.0058,2.0,241.5233111,32.04726665,-99999.0,'11111222,11111222,99999999' 
TABS,ioos:station:wmo:42049:1,2011-04-03T19:00:00Z,28.3507,-96.0058,2.0,240.6084673,31.74605487,-99999.0,'11111222,11111222,99999999' 
TABS,ioos:station:wmo:42049:1,2011-04-03T19:30:00Z,28.3507,-96.0058,2.0,242.4146204,32.91119111,-99999.0,'11111222,11111222,99999999' 
TABS,ioos:station:wmo:42049:1,2011-04-03T20:00:00Z,28.3507,-96.0058,2.0,249.4069974,31.16104138,-99999.0,'11111222,11111222,99999999' 
TABS,ioos:station:wmo:42049:1,2011-04-03T20:30:00Z,28.3507,-96.0058,2.0,256.611786,34.07601209,-99999.0,'11111222,11111222,99999999' 
TABS,ioos:station:wmo:42049:1,2011-04-03T21:00:00Z,28.3507,-96.0058,2.0,258.4513371,34.41671832,-99999.0,'11111222,11111222,99999999' 
TABS,ioos:station:wmo:42049:1,2011-04-03T21:30:00Z,28.3507,-96.0058,2.0,262.0235159,36.82625422,-99999.0,'11111222,11111222,99999999' 
TABS,ioos:station:wmo:42049:1,2011-04-03T22:00:00Z,28.3507,-96.0058,2.0,258.8170457,40.58045096,-99999.0,'11111222,11111222,99999999' 
TABS,ioos:station:wmo:42049:1,2011-04-03T22:30:00Z,28.3507,-96.0058,2.0,259.7221472,39.29040214,-99999.0,'11111222,11111222,99999999' 
TABS,ioos:station:wmo:42049:1,2011-04-03T23:00:00Z,28.3507,-96.0058,2.0,270.5314385,41.00176094,-99999.0,'11111222,11111222,99999999' 
TABS,ioos:station:wmo:42049:1,2011-04-03T23:30:00Z,28.3507,-96.0058,2.0,269.2477109,41.91360877,-99999.0,'11111222,11111222,99999999' 
TABS,ioos:station:wmo:42049:1,2011-04-04T00:00:00Z,28.3507,-96.0058,2.0,267.4395077,41.64156097,-99999.0,'11111222,11111222,99999999' 
TABS,ioos:station:wmo:42049:1,2011-04-04T00:30:00Z,28.3507,-96.0058,2.0,268.96816,43.88711086,-99999.0,'11111222,11111222,99999999' 
TABS,ioos:station:wmo:42049:1,2011-04-04T01:00:00Z,28.3507,-96.0058,2.0,271.6799668,42.64832236,-99999.0,'11111222,11111222,99999999' 
TABS,ioos:station:wmo:42049:1,2011-04-04T01:30:00Z,28.3507,-96.0058,2.0,279.8690978,42.41764963,-99999.0,'11111222,11111222,99999999' 
TABS,ioos:station:wmo:42049:1,2011-04-04T02:00:00Z,28.3507,-96.0058,2.0,280.1072534,42.96674994,-99999.0,'11111222,11111222,99999999' 
TABS,ioos:station:wmo:42049:1,2011-04-04T02:30:00Z,28.3507,-96.0058,2.0,278.4497491,43.14832558,-99999.0,'11111222,11111222,99999999' 
TABS,ioos:station:wmo:42049:1,2011-04-04T03:00:00Z,28.3507,-96.0058,2.0,279.2798323,42.232671,-99999.0,'11111222,11111222,99999999' 
TABS,ioos:station:wmo:42049:1,2011-04-04T03:30:00Z,28.3507,-96.0058,2.0,285.3575961,41.34633478,-99999.0,'11111222,11111222,99999999' 
TABS,ioos:station:wmo:42049:1,2011-04-04T04:00:00Z,28.3507,-96.0058,2.0,286.1834057,43.05603907,-99999.0,'11111222,11111222,99999999' 
TABS,ioos:station:wmo:42049:1,2011-04-04T04:30:00Z,28.3507,-96.0058,2.0,285.7842478,42.38826489,-99999.0,'11111222,11111222,99999999' 
TABS,ioos:station:wmo:42049:1,2011-04-04T05:00:00Z,28.3507,-96.0058,2.0,288.8345606,39.02977837,-99999.0,'11111222,11111222,99999999' 
TABS,ioos:station:wmo:42049:1,2011-04-04T05:30:00Z,28.3507,-96.0058,2.0,299.7049404,35.27548724,-99999.0,'11111222,11111222,99999999' 
TABS,ioos:station:wmo:42049:1,2011-04-04T06:00:00Z,28.3507,-96.0058,2.0,310.0333343,31.93264944,-99999.0,'11111222,11111222,99999999' 
TABS,ioos:station:wmo:42049:1,2011-04-04T06:30:00Z,28.3507,-96.0058,2.0,318.9518597,26.26782442,-99999.0,'11111222,11111222,99999999' 
TABS,ioos:station:wmo:42049:1,2011-04-04T07:00:00Z,28.3507,-96.0058,2.0,326.9786406,21.63477987,-99999.0,'11111222,11111222,99999999' 
TABS,ioos:station:wmo:42049:1,2011-04-04T07:30:00Z,28.3507,-96.0058,2.0,344.6281623,23.19998707,-99999.0,'11111222,11111222,99999999' 
TABS,ioos:station:wmo:42049:1,2011-04-04T08:00:00Z,28.3507,-96.0058,2.0,342.4470416,16.6450383,-99999.0,'11111222,11111222,99999999' 
TABS,ioos:station:wmo:42049:1,2011-04-04T08:30:00Z,28.3507,-96.0058,2.0,4.149950224,21.00506844,-99999.0,'11111222,11111222,99999999' 
TABS,ioos:station:wmo:42049:1,2011-04-04T09:00:00Z,28.3507,-96.0058,2.0,26.1230016,21.4400583,-99999.0,'11111222,11111222,99999999' 
TABS,ioos:station:wmo:42049:1,2011-04-04T09:30:00Z,28.3507,-96.0058,2.0,37.40888218,23.60504395,-99999.0,'11111222,11111222,99999999' 
TABS,ioos:station:wmo:42049:1,2011-04-04T10:00:00Z,28.3507,-96.0058,2.0,46.76612671,29.13956932,-99999.0,'11111222,11111222,99999999' 
TABS,ioos:station:wmo:42049:1,2011-04-04T10:30:00Z,28.3507,-96.0058,2.0,54.19207266,26.11648522,-99999.0,'11111222,11111222,99999999' 
TABS,ioos:station:wmo:42049:1,2011-04-04T11:00:00Z,28.3507,-96.0058,2.0,60.81684033,26.82504054,-99999.0,'11111222,11111222,99999999' 
TABS,ioos:station:wmo:42049:1,2011-04-04T11:30:00Z,28.3507,-96.0058,2.0,62.36512617,30.65736453,-99999.0,'11111222,11111222,99999999' 
TABS,ioos:station:wmo:42049:1,2011-04-04T12:00:00Z,28.3507,-96.0058,2.0,66.04508938,30.93455188,-99999.0,'11111222,11111222,99999999' 
TABS,ioos:station:wmo:42049:1,2011-04-04T12:30:00Z,28.3507,-96.0058,2.0,68.00068428,32.2480449,-99999.0,'11111222,11111222,99999999' 
TABS,ioos:station:wmo:42049:1,2011-04-04T13:00:00Z,28.3507,-96.0058,2.0,70.33766201,27.01521238,-99999.0,'11111222,11111222,99999999' 
TABS,ioos:station:wmo:42049:1,2011-04-04T13:30:00Z,28.3507,-96.0058,2.0,69.37750269,29.24392074,-99999.0,'11111222,11111222,99999999' 
TABS,ioos:station:wmo:42049:1,2011-04-04T14:00:00Z,28.3507,-96.0058,2.0,70.24057547,30.6443339,-99999.0,'11111222,11111222,99999999' 
TABS,ioos:station:wmo:42049:1,2011-04-04T14:30:00Z,28.3507,-96.0058,2.0,81.46925434,28.71772275,-99999.0,'11111222,11111222,99999999' 
TABS,ioos:station:wmo:42049:1,2011-04-04T15:00:00Z,28.3507,-96.0058,2.0,75.65891065,31.45003975,-99999.0,'11111222,11111222,99999999' 
TABS,ioos:station:wmo:42049:1,2011-04-04T15:30:00Z,28.3507,-96.0058,2.0,89.47234972,26.06110512,-99999.0,'11111222,11111222,99999999' 
TABS,ioos:station:wmo:42049:1,2011-04-04T16:00:00Z,28.3507,-96.0058,2.0,88.79244639,27.9962176,-99999.0,'11111222,11111222,99999999' 
TABS,ioos:station:wmo:42049:1,2011-04-04T16:30:00Z,28.3507,-96.0058,2.0,106.2453471,29.38320098,-99999.0,'11111222,11111222,99999999' 
TABS,ioos:station:wmo:42049:1,2011-04-04T17:00:00Z,28.3507,-96.0058,2.0,107.700915,21.97014565,-99999.0,'11111222,11111222,99999999' 
TABS,ioos:station:wmo:42049:1,2011-04-04T17:30:00Z,28.3507,-96.0058,2.0,108.6175066,30.75963101,-99999.0,'11111222,11111222,99999999' 
TABS,ioos:station:wmo:42049:1,2011-04-04T18:00:00Z,28.3507,-96.0058,2.0,110.1011981,32.73392888,-99999.0,'11111222,11111222,99999999' 
TABS,ioos:station:wmo:42049:1,2011-04-04T18:30:00Z,28.3507,-96.0058,2.0,110.282859,33.63566708,-99999.0,'11111222,11111222,99999999' 
TABS,ioos:station:wmo:42049:1,2011-04-04T19:00:00Z,28.3507,-96.0058,2.0,110.2111714,31.1159525,-99999.0,'11111222,11111222,99999999' 
TABS,ioos:station:wmo:42049:1,2011-04-04T19:30:00Z,28.3507,-96.0058,2.0,174.1060425,31.74781882,-99999.0,'11111222,11111222,99999999' 
TABS,ioos:station:wmo:42049:1,2011-04-04T20:00:00Z,28.3507,-96.0058,2.0,179.2091005,52.17496814,-99999.0,'11111222,11111222,99999999' 